Вернуться в каталог

BREEZE-M R/B

АктивенMEO
NORAD 39488·ROCKET BODY·🇷🇺 Russia

Запущен Dec 26, 2013 с Baikonur Cosmodrome

Loading…

Ближайшие Пролёты (ближайшие 24 часа)

TLE

СвежийSource: Space-Track

Эпоха: Sep 14, 2026, 07:42 UTC

1 39488U 13077B   26257.32136435 -.00000197  00000-0  00000-0 0  9997
2 39488  10.8336  58.3020 0562876 184.8133 174.7534  0.89565692 41472

Отслеживайте BREEZE-M R/B в реальном времени с AllMySat

Download on the App Store